Location: Newark
(52.4787°S, 179.0532°W)
Time: 09:20:40
(UTC+00:00)

Vanguard 1 - Pass Details

Date: 26 November 2019
Orbit: 652 x 3831 km, 34.2° (Epoch: 06 December)

Event Time Altitude Azimuth Distance (km) Brightness Sun altitude
Rises 13:21:15 0° 274° (W) 5,919 13.8 -13.5°
Reaches altitude 10° 13:25:13 10° 283° (WNW) 5,317 13.4 -13.3°
Maximum altitude 13:39:12 32° 338° (NNW) 4,769 13.0 -12.4°
Drops below altitude 10° 13:57:38 10° 30° (NNE) 6,934 14.1 -11.0°
Sets 14:03:57 0° 38° (NE) 7,896 14.5 -10.5°
